Location: Derby
(52.9213°N, 1.4761°W)
Time: 15:38:48
(UTC+01:00)

Vanguard 1 - Pass Details

Date: 28 May 2025
Orbit: 649 x 3822 km, 34.3° (Epoch: 14 June)

Event Time Altitude Azimuth Distance (km) Brightness Sun altitude
Rises 20:53:56 0° 269° (W) 7,284 15.5 1.9°
Reaches altitude 10° 21:00:41 10° 258° (WSW) 5,746 14.7 1.1°
Maximum altitude 21:11:43 23° 215° (SW) 3,673 13.0 -0.2°
Drops below altitude 10° 21:19:13 10° 168° (SSE) 3,758 12.6 -1.1°
Sets 21:22:29 0° 153° (SSE) 4,336 12.8 -1.5°
